Hourly Data Report for October 01, 2013

All times are specified in Local Standard Time (LST). Add 1 hour to adjust for Daylight Saving Time where and when it is observed.

CHARLOTTETOWN A
PRINCE EDWARD ISLAND

46°17'21.000" N
63°07'09.000" W
48.50 m
8300301
71706
YYG

Related Data

No related data is available for this station

Download Data

Hourly Data (October 2013)
Hourly Data Report for October 1, 2013
Temp Definition
°C
Dew Point Temp Definition
°C
Rel Hum Definition
%
Wind Dir Definition
10's deg

Wind Spd Definition
km/h
Visibility Definition
km
Stn Press Definition
kPa
Hmdx Definition


Wind Chill Definition


Weather Definition


TIME
00:00 Legend Double Dagger 13.1 10.7 85 17 5 24.1 101.05     LegendNANA
01:00 Legend Double Dagger 13.5 11.6 88 12 5 24.1 101.01     LegendNANA
02:00 Legend Double Dagger 12.5 11.3 92 36 4 24.1 100.96     Cloudy
03:00 Legend Double Dagger 12.3 11.1 92 4 3 24.1 100.92     LegendNANA
04:00 Legend Double Dagger 11.9 11.0 94 3 4 24.1 100.88     LegendNANA
05:00 Legend Double Dagger 12.7 10.6 87 4 3 24.1 100.85     Cloudy
06:00 Legend Double Dagger 11.6 10.4 92 4 6 24.1 100.83     LegendNANA
07:00 Legend Double Dagger 13.0 10.9 87 5 7 24.1 100.82     LegendNANA
08:00 Legend Double Dagger 14.4 11.8 84 1 8 24.1 100.79     Mostly Cloudy
09:00 Legend Double Dagger 15.5 12.8 84 2 10 24.1 100.78     LegendNANA
10:00 Legend Double Dagger 17.5 11.4 67 6 17 24.1 100.73     LegendNANA
11:00 Legend Double Dagger 18.0 8.7 54 7 14 24.1 100.69     Mostly Cloudy
12:00 Legend Double Dagger 18.3 10.0 58 4 20 24.1 100.59     LegendNANA
13:00 Legend Double Dagger 16.9 11.2 69 5 11 24.1 100.50     LegendNANA
14:00 Legend Double Dagger 16.2 11.0 71 5 8 24.1 100.44     Cloudy
15:00 Legend Double Dagger 15.4 12.4 82 35 7 24.1 100.40     Rain Showers
16:00 Legend Double Dagger 14.5 13.4 93 34 6 24.1 100.38     Rain Showers
17:00 Legend Double Dagger 13.2 11.3 88 10 5 24.1 100.37     Cloudy
18:00 Legend Double Dagger 12.9 10.8 87 6 4 24.1 100.35     Rain Showers
19:00 Legend Double Dagger 11.9 11.3 96 2 3 24.1 100.31     Rain Showers
20:00 Legend Double Dagger 11.9 11.1 95 35 5 24.1 100.29     Rain Showers
21:00 Legend Double Dagger 11.9 11.1 95 34 8 24.1 100.28     Rain Showers
22:00 Legend Double Dagger 11.8 10.9 94 33 7 24.1 100.25     Rain Showers
23:00 Legend Double Dagger 11.8 11.0 95 31 8 24.1 100.21     Cloudy

Notes on Data Quality.

Legend

  • E = Estimated
  • M = Missing
  • NA = Not Available
  • ‡ = Partner data that is not subject to review by the National Climate Archives
Date modified: